,

(GMT )
Clinton

Weather History for CWCL - March, 2014

Change the Weather History Date:

Monday, March 3, 2014

  Actual Average Record
Temperature  
Mean Temperature 11 °F -  
Max Temperature 21 °F 32 °F 51 °F (2012)
Min Temperature 1 °F 15 °F 1 °F (2014)
Degree Days  
Heating Degree Days 54    
Moisture  
Dew Point 3 °F    
Average Humidity 65    
Maximum Humidity 73    
Minimum Humidity 42    
Precipitation  
Precipitation 0.00 in - - ()
Sea Level Pressure  
Sea Level Pressure 29.66 in    
Wind  
Wind Speed 4 mph ()    
Max Wind Speed 12 mph    
Max Gust Speed 17 mph    
Visibility 7.8 miles    
Events      
Averages and records for this station are not official NWS values.
T = Trace of Precipitation, MM = Missing Value Source: Averaged Metar Reports

Daily Weather History Graph

Daily Weather History Graph

Search for Another Location

Airport or City:

Trip Planner

Search our weather history database for the weather conditions in past years. The results will help you decide how hot, cold, wet, or windy it might be!

Date:

Astronomy

Mar. 03, 2014 Rise Set
Actual Time 6:46 AM PST 5:50 PM PST
Civil Twilight 6:12 AM PST 6:23 PM PST
Nautical Twilight 5:34 AM PST 7:02 PM PST
Astronomical Twilight 4:56 AM PST 7:40 PM PST
Moon 7:36 AM PST (3/3) 9:24 PM PST (3/3)
Length of Visible Light 12h 10m
Length of Day
11h 04m
Waxing Crescent, 8% of the Moon is Illuminated
Mar 3
Waxing Crescent
Mar 8
First Quarter
Mar 16
Full
Mar 23
Last Quarter
Mar 30
New

Hourly Weather History & Observations

Time (PST) Temp. Windchill Dew Point Humidity Pressure Visibility Wind Dir Wind Speed Gust Speed Precip Events Conditions
12:00 AM 14.0 °F 8.2 °F 6.8 °F 73% 29.69 in 9.0 mi SE 3.5 mph - N/A   Unknown
12:03 AM 14.0 °F 6.5 °F 6.8 °F 73% 29.51 in 9.0 mi SSE 4.6 mph - N/A   Unknown
12:10 AM 14.0 °F 5.1 °F 6.8 °F 73% 29.51 in 9.0 mi SE 5.8 mph - N/A   Unknown
12:20 AM 14.0 °F 8.2 °F 6.8 °F 73% 29.51 in 9.0 mi SE 3.5 mph - N/A   Unknown
12:23 AM 14.0 °F 8.2 °F 6.8 °F 73% 29.51 in 9.0 mi SSE 3.5 mph - N/A   Unknown
12:39 AM 14.0 °F 6.5 °F 6.8 °F 73% 29.51 in 9.0 mi SSE 4.6 mph - N/A   Unknown
12:58 AM 14.0 °F 6.5 °F 6.8 °F 73% 29.51 in 9.0 mi SSE 4.6 mph - N/A   Unknown
1:00 AM 14 °F - 6 °F 60% 29.69 in 9 mi SSE 5.8 mph - -  
1:00 AM 14.0 °F 3.9 °F 6.8 °F 73% 29.69 in 9.0 mi SSE 6.9 mph - N/A   Unknown
1:08 AM 14.0 °F 6.5 °F 6.8 °F 73% 29.51 in 9.0 mi SE 4.6 mph - N/A   Unknown
1:13 AM 14.0 °F 8.2 °F 6.8 °F 73% 29.52 in 9.0 mi SE 3.5 mph - N/A   Unknown
2:00 AM 14.0 °F 8.2 °F 6.8 °F 73% 29.69 in 9.0 mi SSE 3.5 mph - N/A   Unknown
2:18 AM 14.0 °F 5.1 °F 6.8 °F 73% 29.52 in 9.0 mi South 5.8 mph - N/A   Unknown
2:44 AM 14.0 °F 8.2 °F 6.8 °F 73% 29.52 in 9.0 mi South 3.5 mph - N/A   Unknown
2:46 AM 14.0 °F - 6.8 °F 73% 29.52 in 9.0 mi SSW 2.3 mph - N/A   Unknown
2:57 AM 14.0 °F 6.5 °F 6.8 °F 73% 29.51 in 9.0 mi South 4.6 mph - N/A   Unknown
3:00 AM 14.0 °F 6.5 °F 6.8 °F 73% 29.68 in 9.0 mi South 4.6 mph - N/A   Unknown
3:02 AM 14.0 °F 6.5 °F 6.8 °F 73% 29.51 in 9.0 mi South 4.6 mph - N/A   Unknown
4:00 AM 15 °F - 7 °F 59% 29.69 in 9 mi Calm Calm - -  
4:00 AM 15.8 °F - 6.8 °F 68% 29.69 in 9.0 mi Calm Calm - N/A   Unknown
4:09 AM 15.8 °F - 6.8 °F 68% 29.52 in 9.0 mi South 2.3 mph - N/A   Unknown
4:11 AM 15.8 °F - 6.8 °F 68% 29.52 in 9.0 mi Calm Calm - N/A   Unknown
4:12 AM 15.8 °F - 6.8 °F 68% 29.52 in 9.0 mi Calm Calm - N/A   Unknown
5:00 AM 15.8 °F - 6.8 °F 68% 29.71 in 9.0 mi South 2.3 mph - N/A   Unknown
5:16 AM 15.8 °F - 6.8 °F 68% 29.53 in 9.0 mi SSW 2.3 mph - N/A   Unknown
5:30 AM 15.8 °F - 6.8 °F 68% 29.53 in 9.0 mi Calm Calm - N/A   Unknown
6:00 AM 12.2 °F 0.7 °F 3.2 °F 67% 29.73 in 9.0 mi NW 8.1 mph - N/A   Unknown
7:00 AM 8 °F - -1 °F 52% 29.74 in 9 mi NW 6.9 mph - -  
7:00 AM 8.6 °F -2.6 °F -0.4 °F 67% 29.74 in 9.0 mi NW 6.9 mph - N/A   Unknown
8:00 AM 8.6 °F -1.3 °F -0.4 °F 67% 29.75 in 9.0 mi NW 5.8 mph - N/A   Unknown
9:00 AM 8.6 °F - -0.4 °F 67% 29.74 in 9.0 mi NW 2.3 mph - N/A   Unknown
10:00 AM 10 °F - 1 °F 53% 29.72 in 9 mi NNW 3.5 mph - -  
10:00 AM 10.4 °F 2.2 °F 1.4 °F 67% 29.72 in 9.0 mi NNW 4.6 mph - N/A   Unknown
11:00 AM 12.2 °F 6.1 °F 3.2 °F 67% 29.70 in 9.0 mi NNE 3.5 mph - N/A   Unknown
12:00 PM 14.0 °F 8.2 °F 5.0 °F 67% 29.68 in 9.0 mi NNE 3.5 mph - N/A   Unknown
12:55 PM 17.6 °F 12.3 °F 6.8 °F 63% 29.48 in 9.0 mi NNE 3.5 mph - N/A   Unknown
1:00 PM 18 °F - 8 °F 51% 29.65 in 9 mi North 3.5 mph - -  
1:00 PM 17.6 °F 12.3 °F 8.6 °F 68% 29.65 in 9.0 mi North 3.5 mph - N/A   Unknown
2:00 PM 19.4 °F 14.3 °F 8.6 °F 63% 29.65 in 9.0 mi NW 3.5 mph - N/A   Unknown
3:00 PM 19.4 °F 8.6 °F 6.8 °F 58% 29.66 in 9.0 mi NW 9.2 mph - N/A   Unknown
4:00 PM 17 °F - 4 °F 42% 29.70 in 9 mi NNW 8.1 mph - -  
4:00 PM 17.6 °F 7.3 °F 3.2 °F 53% 29.70 in 9.0 mi NW 8.1 mph - N/A   Unknown
4:55 PM 14.0 °F 1.2 °F 1.4 °F 57% 29.56 in 2.2 mi NW 10.4 mph 17.3 mph N/A   Unknown
5:00 PM 14.0 °F 3.9 °F 1.4 °F 57% 29.75 in 1.6 mi NNW 6.9 mph 17.3 mph N/A   Unknown
5:01 PM 14.0 °F 5.1 °F 1.4 °F 57% 29.56 in 1.2 mi NNW 5.8 mph 17.3 mph N/A   Unknown
5:06 PM 14.0 °F 3.9 °F 3.2 °F 62% 29.57 in 0.8 mi NNW 6.9 mph - N/A   Unknown
5:30 PM 14.0 °F 2.9 °F 3.2 °F 62% 29.58 in 0.6 mi NNW 8.1 mph - N/A   Unknown
5:31 PM 12.2 °F 0.7 °F 3.2 °F 67% 29.58 in 0.6 mi NNW 8.1 mph - N/A   Unknown
5:36 PM 12.2 °F 2.9 °F 3.2 °F 67% 29.59 in 0.6 mi NNW 5.8 mph - N/A   Unknown
5:38 PM 12.2 °F 1.7 °F 3.2 °F 67% 29.59 in 1.0 mi NNW 6.9 mph - N/A   Unknown
5:50 PM 12.2 °F 4.3 °F 1.4 °F 62% 29.60 in 2.2 mi NNW 4.6 mph - N/A   Unknown
6:00 PM 12.2 °F 0.7 °F 1.4 °F 62% 29.80 in 3.0 mi NNW 8.1 mph - N/A   Unknown
7:00 PM 9 °F - -3 °F 43% 29.86 in 9 mi NNW 8.1 mph - -  
7:00 PM 8.6 °F -6.3 °F -2.2 °F 62% 29.86 in 9.0 mi NNW 11.5 mph - N/A   Unknown
7:20 PM 8.6 °F -2.6 °F -4.0 °F 57% 29.65 in 9.0 mi NNW 6.9 mph - N/A   Unknown
8:00 PM 6.8 °F -3.5 °F -4.0 °F 61% 29.91 in 9.0 mi NNW 5.8 mph - N/A   Unknown
8:19 PM 6.8 °F -2.0 °F -4.0 °F 61% 29.69 in 9.0 mi North 4.6 mph - N/A   Unknown
9:00 PM 6.8 °F -3.5 °F -4.0 °F 61% 29.93 in 9.0 mi North 5.8 mph - N/A   Unknown
10:00 PM 6 °F - -5 °F 47% 29.94 in 9 mi North 2.3 mph - -  
10:00 PM 6.8 °F - -4.0 °F 61% 29.94 in 9.0 mi Calm Calm - N/A   Unknown
11:00 PM 5.0 °F - -5.8 °F 61% 29.94 in 9.0 mi North 2.3 mph - N/A   Unknown
11:36 PM 1.4 °F -6.2 °F -7.6 °F 66% 29.73 in 9.0 mi NNW 3.5 mph - N/A   Unknown
11:47 PM 1.4 °F -6.2 °F -7.6 °F 66% 29.74 in 9.0 mi NNW 3.5 mph - N/A   Unknown
11:59 PM 1.4 °F -8.3 °F -7.6 °F 66% 29.74 in 9.0 mi NW 4.6 mph - N/A   Unknown